Regional Weather Roundup
Issued by NWS Jackson, KY

Home | Current Version | Previous Version | Text Only | Print | Product List | Glossary Off
Versions: 1 2 3 4 5 6 7 8 9 10 11 12 13 14 15 16 17 18 19 20 21 22 23 24 25 26 27

000
ASUS43 KJKL 271510
RWRJKL

EAST KENTUCKY HOURLY WEATHER ROUNDUP
NATIONAL WEATHER SERVICE JACKSON KY
1100 AM EDT FRI MAY 27 2016

NOTE: "FAIR" INDICATES FEW OR NO CLOUDS BELOW 12,000 FEET WITH
NO SIGNIFICANT WEATHER AND/OR OBSTRUCTIONS TO VISIBILITY.

* THESE REPORTS ARE NOT UNDER NWS QUALITY CONTROL AND MAY NOT
  REPORT WEATHER SUCH AS PRECIPITATION AND FOG.

KYZ079-080-083-085-087-088-110-112-115-119-120-271600
...EASTERN KENTUCKY...

CITY           SKY/WX    TMP DP  RH WIND       PRES   REMARKS
JACKSON        SUNNY     79  65  62 SE3       30.11S
LONDON         SUNNY     79  63  57 S7        30.10F
SOMERSET*      SUNNY     75  64  69 S3        30.10F
MONTICELLO*    SUNNY     80  66  62 VRB7      30.10F
WILLIAMSBURG*  SUNNY     77  66  69 W5        30.11S
MIDDLESBORO*   SUNNY     78  64  63 S7        30.13S
HARLAN APT*      N/A     77  63  61 CALM      30.14F
HAZARD APT*    SUNNY     81  66  61 SW7       30.11S
BLACK MTN*       N/A     72  61  68 S7          N/A
PIKE CO APT*     N/A     77  67  69 S3        30.12S
BIG SANDY APT* SUNNY     79  66  64 SW6       30.11R
MOREHEAD APT*  SUNNY     79  66  65 S5        30.10S
ASHLAND*       SUNNY     75  68  78 CALM      30.05S
$$

KYZ035-036-041-042-044-050-067-078-099-271600
...CENTRAL KENTUCKY...

CITY           SKY/WX    TMP DP  RH WIND       PRES   REMARKS
MT STERLING*   SUNNY     77  68  73 W5        30.09S
FLEMING/MASON* SUNNY    N/A N/A N/A S7        30.08S
DANVILLE*      SUNNY     79  64  61 SW10      30.09S
RICHMOND*      SUNNY     79  64  61 S9        30.08S
LEXINGTON      SUNNY     79  66  64 S9        30.07S
FRANKFORT      SUNNY     78  67  68 SW7       30.05S
LOUISVILLE     MOSUNNY   79  66  64 S8        30.04R
LEBANON*         N/A     79  66  65 S10       30.06S
GLASGOW*       CLOUDY    79  65  62 S8        30.06R
BOWLING GREEN  SUNNY     79  66  64 S14       30.05R
$$

KYZ091>093-OHZ055-061-077-WVZ005-015-034-035-042-271600
...SOUTHERN OHIO/WEST VIRGINIA...

CITY           SKY/WX    TMP DP  RH WIND       PRES   REMARKS
COVINGTON      MOSUNNY   77  66  68 SW8       30.05R
COLUMBUS       MOSUNNY   75  63  66 SW6       30.04S
DAYTON         MOSUNNY   76  64  66 SW9       30.04F
WILMINGTON     SUNNY     76  65  68 SW6       30.04F
HUNTINGTON       N/A     77  68  73 S5        30.07F
CHARLESTON       N/A     80  63  55 CALM      30.10S
PINEVILLE*       N/A     79  58  48 MISG      30.20S
BECKLEY          N/A     76  57  51 SW6       30.18F
BLUEFIELD        N/A     74  57  55 SW3       30.21F
LOGAN CO APT*    N/A     77  64  65 CALM      30.12S
$$

VAZ002-007-008-TNZ017-027-036-066-071-271600
...SOUTHWEST VIRGINIA/EAST TENNESSEE...

CITY           SKY/WX    TMP DP  RH WIND       PRES   REMARKS
WISE*            N/A     77  55  47 CALM      30.20F
JONESVILLE*      N/A     77  64  65 CALM      30.16F
ABINGDON*        N/A     80  63  56 CALM      30.17F
BRISTOL        MOSUNNY   77  63  61 VRB3      30.15F
SEVIERVILLE*   SUNNY     75  64  69 CALM      30.11F
KNOXVILLE      PTSUNNY   78  65  63 N3        30.11F
OAK RIDGE      SUNNY     79  63  57 CALM      30.12F
CROSSVILLE     MOSUNNY   77  64  64 S7        30.14S
NASHVILLE      CLOUDY    79  63  57 S8        30.05F
$$

...KEY TO REMARKS...
VSB - VISIBILITY IN MILES
WCI - WIND CHILL INDEX
HX  - HEAT INDEX

$$




USA.gov is the U.S. government's official web portal to all federal, state and local government web resources and services.